DELTA 1 DEB, 42650

Orbit data source: Space-Track

DELTA 1 DEB, 42650 is space debris in SSO originally from a launch on Thu, 12 Jun 1975 UTC launched from the Air Force Western Test Range (AFWTR). Debris objects in space refer to the collection of defunct objects orbiting the Earth. Examples of debris include non-operational satellites, rocket bodies, and fragments generated from explosions, collisions, or faulty payload assembly.

Loading next visibility...
Identifier
42650, 1975-052MK
Orbit
SSO
Country
Flag of USUS
Related business
Manufacturer
Unknown
Mission
Spacecraft
Bus & Motor
Unknown
Mass
Unknown
Launch date (UTC)
1975-06-12 (51 years ago)
Launch vehicle
Unknown
Launch site
Air Force Western Test Range (AFWTR)
Object type
Payload
Rocket body
Debris
Shape & HBR
Unknown shape, 1.1 m
Radar Cross Section
Medium (>0.1 m² and <1 m²)

Expand to show TLE details & history
Last TLE update: 3 days ago

TLE from 3 days ago
0 DELTA 1 DEB
1 42650U 75052MK  26170.12926318 -.00000007  00000-0  53197-4 0  9991
2 42650  99.7817 290.0051 0228537  15.0026 345.7740 13.44789108615230
Epoch: 2026-06-19T03:06Z
TLE epoch observation values (Epoch: 2026-06-19T03:06:08.338Z)
Latitude
0.00001°
Longitude
-23.89232°
Altitude
929.009 km
Speed
7.469 km/s
True Right ascension
19h 20m 01s
True Declination
0° 00' 00"
Sunlit
Object was in full shadow at epoch
Visualization orbit readout
Latitude
Unknown
Longitude
Unknown
Altitude
Unknown
Speed
Unknown
Apparent Right ascension
Unknown
Apparent Declination
Unknown
Sunlit
N/A
Visualization observer readout
Local Sidereal Time
00:49:58
Azimuth
Unknown
Elevation
Unknown
Doppler factor
Unknown
Orbital elements
Apogee altitude
1,259.45 km
Perigee altitude
918.156 km
Semi-major axis
7,466.94 km
Eccentricity
0.02285
Inclination
99.7817°
RAAN
290.0051°
Arg. of periapsis
15.0026°
True anomaly
345.11213°
Mean anomaly
345.774°
Eccentric anomaly
345.44493°
Mean motion
3.36379 °/min
Orbital period
107.02 mins
BSTAR
0.000053197
Loading maneuver chart data...
Computing Atmospheric mass density...

Documentation

Showing up to 5 results
|